Theta_e
310 309 314 314 306 313 319 322 322 321 319 325 329 330 326 328 330 331 331 329 329 327 324 322 321 321 324 326 320 320 318 321 323 319 320 319 320 323 325 327 329 330 328 326 328
309 310 310 314 312 306 316 321 321 322 318 322 326 329 327 327 329 330 330 329 329 328 324 322 322 322 325 326 320 318 319 320 320 318 319 320 320 323 325 327 329 327 328 327 328
309 309 311 310 314 309 307 318 321 322 321 318 323 326 328 328 329 328 327 329 328 327 325 322 322 322 325 323 321 318 319 317 319 317 317 320 319 324 324 324 326 327 326 326 329
311 308 311 311 311 313 306 311 319 321 322 318 320 325 327 327 329 327 327 328 326 325 323 321 321 322 320 321 320 321 320 321 321 317 317 318 319 320 324 325 324 325 325 325 327
312 308 310 311 311 311 313 305 316 319 322 321 319 323 326 327 326 325 326 328 326 323 322 321 322 322 321 319 318 319 320 320 321 321 321 317 317 319 320 323 323 321 323 323 325
312 310 310 312 311 311 312 306 310 319 320 322 319 320 324 324 325 324 326 327 325 322 321 321 321 322 322 321 319 321 319 321 320 318 318 316 316 315 318 319 321 321 323 324 324
312 312 308 311 310 309 310 312 307 316 319 321 320 319 323 323 323 323 324 326 325 326 321 322 322 321 321 322 323 323 324 321 319 321 318 315 316 313 321 318 318 318 320 323 323
312 312 309 310 311 309 311 313 305 314 318 320 322 321 320 321 322 322 323 322 321 320 322 322 322 321 320 320 317 322 323 327 324 314 317 317 327 317 320 317 318 319 318 319 321
314 311 311 309 309 309 311 312 306 313 316 318 322 321 320 320 321 321 322 322 321 319 320 323 322 322 322 318 320 315 319 323 325 315 315 314 319 316 319 316 317 318 319 319 320
310 310 311 308 307 308 311 312 308 315 316 318 319 317 317 320 321 321 321 323 323 323 321 322 322 323 321 322 328 321 319 318 323 321 313 315 315 313 317 317 318 318 318 319 320
308 309 311 309 307 309 311 310 310 314 316 315 316 314 316 318 320 321 322 321 321 321 322 320 322 323 323 323 320 316 318 318 317 318 315 315 314 315 317 315 316 319 319 319 320
306 307 310 310 308 309 312 309 308 309 312 312 316 315 316 316 319 320 321 320 320 321 319 320 324 320 321 322 323 321 321 320 318 317 317 318 318 317 315 315 317 319 320 320 321
305 307 309 310 309 309 312 308 308 308 310 310 313 314 317 318 319 320 320 320 320 320 320 322 320 319 321 322 324 322 323 322 321 318 316 315 317 317 314 317 319 319 320 321 322
303 306 308 309 309 310 311 308 309 308 303 309 310 313 315 316 316 319 320 319 319 320 318 320 318 320 321 322 322 323 319 321 321 322 323 315 319 317 311 313 314 316 316 316 316
303 305 306 309 310 310 309 308 308 308 308 306 308 309 313 314 314 317 319 318 319 320 319 319 318 319 321 320 320 321 319 320 320 322 321 320 322 320 315 315 314 315 316 318 317
304 305 308 308 310 310 310 308 309 308 309 309 308 309 310 312 312 316 318 317 317 318 317 317 316 317 318 317 318 317 319 318 318 320 324 323 322 317 317 317 316 316 318 318 317
303 304 306 307 310 310 308 308 307 309 302 308 309 310 309 309 311 312 316 318 319 320 320 318 318 316 317 318 318 319 319 323 323 322 323 311 319 321 313 313 314 316 317 317 316
303 304 305 309 310 309 308 307 308 299 303 305 308 310 310 309 310 311 312 314 316 314 317 319 320 317 315 318 320 321 320 322 322 321 317 312 318 316 313 316 316 316 317 317 317
304 303 308 310 309 309 308 309 306 298 303 306 308 309 309 309 309 310 311 311 313 314 314 317 317 314 315 315 317 319 321 315 313 298 310 312 312 311 310 311 313 314 316 317 317
304 306 305 309 308 308 308 307 302 302 305 306 308 308 308 310 308 307 309 308 310 311 312 313 314 313 314 316 316 318 317 321 316 320 316 314 312 315 312 312 312 312 315 317 316
304 303 308 309 308 308 308 300 306 305 306 304 305 308 307 309 306 308 306 306 308 308 312 314 313 315 314 317 318 318 320 318 319 316 318 313 315 308 313 312 312 311 314 314 315
305 303 309 309 308 307 307 302 306 306 307 307 305 304 304 306 308 307 305 304 307 310 312 312 313 315 314 314 312 315 318 318 320 317 312 312 319 308 308 308 309 312 314 314 313
304 308 309 308 306 306 303 304 305 306 305 306 305 306 305 305 307 306 305 306 306 308 310 310 312 308 313 314 314 317 317 317 317 315 315 315 318 308 308 308 312 310 312 311 312
307 307 307 304 304 305 304 305 305 304 304 303 305 305 305 305 303 305 305 307 306 307 309 312 308 310 309 311 312 317 317 318 318 320 319 318 317 315 310 309 310 313 314 315 315
306 300 301 303 304 305 304 303 306 306 304 303 304 305 305 307 306 301 305 306 306 309 309 309 311 308 308 309 310 313 314 316 318 318 320 318 316 316 315 314 314 315 316 316 316
303 302 303 299 302 303 304 303 305 301 304 304 303 305 305 304 306 305 305 307 309 307 306 306 307 309 310 308 308 309 309 310 312 314 314 317 317 315 315 315 314 314 315 315 316
304 303 304 302 301 300 297 302 301 300 301 302 302 302 303 303 304 305 306 305 305 307 309 310 308 306 309 307 307 310 309 309 309 309 310 312 312 312 313 313 312 314 315 314 315
Wind_Speed
36 40 33 31 36 37 37 33 30 27 34 33 27 27 27 27 27 26 26 20 21 12 9 10 9 4 3 2 3 4 4 2 3 5 3 6 4 5 5 5 8 7 5 3 12
38 38 39 33 33 37 38 32 32 28 30 34 33 30 31 30 28 30 27 21 17 20 10 10 10 6 3 4 2 2 3 8 4 3 2 5 5 10 5 5 7 8 10 7 16
39 40 39 39 33 34 38 36 32 30 27 32 33 31 35 33 27 30 29 26 20 15 16 11 10 9 4 4 4 3 5 5 2 1 3 4 5 9 7 3 10 12 12 11 19
40 39 40 39 38 32 36 37 31 32 28 27 31 27 28 36 9 15 25 24 17 16 15 11 10 9 5 4 5 2 6 4 2 4 2 3 5 5 11 6 2 10 10 14 20
43 41 41 39 40 36 33 38 35 30 29 26 29 30 25 25 8 10 24 28 19 15 14 12 12 7 6 4 4 3 3 5 10 7 4 2 4 5 11 14 10 7 12 15 19
45 43 41 41 37 40 34 36 37 32 29 27 27 29 26 15 20 6 21 30 23 16 13 15 9 9 6 4 5 2 5 7 3 3 4 4 3 4 5 10 12 10 11 15 17
47 47 43 41 37 35 36 34 37 34 30 29 25 27 24 21 13 16 22 19 18 17 12 13 12 8 9 4 3 1 2 4 6 7 4 2 5 7 15 10 11 13 14 16 18
44 48 43 42 40 35 34 33 36 34 32 29 26 26 12 24 10 11 20 25 23 17 15 16 10 8 3 4 4 3 1 2 3 7 4 8 11 5 19 18 18 16 17 19 20
41 48 43 44 41 36 35 32 34 32 32 28 28 27 12 21 25 18 19 28 23 25 26 19 13 4 2 4 3 5 4 4 5 9 2 6 7 6 12 18 21 21 19 19 20
43 44 47 46 42 39 36 31 31 27 27 26 22 19 6 16 27 23 21 25 29 28 19 14 2 2 1 3 8 5 3 3 5 3 4 4 13 7 7 10 22 23 19 20 22
40 48 52 48 43 42 37 32 27 18 28 13 12 7 19 13 27 25 28 30 23 20 9 13 8 14 10 10 2 4 2 3 3 4 4 7 12 11 21 16 17 16 19 23 26
36 32 42 48 44 44 42 40 48 31 15 14 17 21 12 26 13 28 32 16 13 7 11 5 16 9 8 9 5 2 1 3 4 2 3 6 11 12 12 14 26 32 32 33 31
40 36 44 48 44 45 49 50 39 28 8 6 12 15 23 19 16 25 33 16 12 8 10 6 2 15 11 7 9 9 5 4 4 5 3 5 10 13 8 24 33 36 38 38 38
42 40 42 46 46 49 48 43 31 33 4 4 8 8 17 10 5 24 25 11 3 10 7 2 4 17 14 15 13 13 11 6 6 3 5 3 8 12 4 9 12 32 38 45 46
40 38 41 50 49 57 56 46 32 22 9 9 5 11 15 8 12 12 29 10 8 7 6 5 9 11 10 6 10 3 7 10 9 10 5 8 6 7 2 6 11 20 35 37 38
40 37 41 50 45 46 51 45 35 6 7 6 10 10 7 4 2 8 16 9 9 5 3 5 6 9 6 7 15 8 6 4 3 3 8 12 10 4 7 9 8 21 35 37 36
44 39 40 58 50 55 58 40 5 5 2 8 7 12 11 7 6 5 14 7 5 8 10 4 4 1 9 5 3 6 8 3 3 3 9 4 9 16 6 8 11 18 31 29 25
42 34 40 54 50 60 56 10 4 3 7 4 10 15 11 9 2 3 8 12 13 3 5 8 5 13 5 6 5 8 6 4 7 6 3 2 8 6 15 24 31 37 37 33 30
42 33 56 48 61 65 41 12 6 7 8 11 18 18 7 5 6 5 10 10 10 12 7 7 6 3 5 4 10 5 6 2 2 2 2 4 8 8 10 14 15 27 31 38 38
41 36 57 56 67 58 15 6 4 8 12 15 7 11 13 19 7 10 12 7 10 19 4 3 1 0 6 7 6 6 9 3 2 5 5 6 6 9 2 8 14 13 25 35 31
40 17 51 65 63 44 16 4 6 7 18 6 6 8 14 16 10 14 10 1 10 8 20 3 4 2 6 7 13 5 6 4 3 3 4 3 6 7 14 13 10 10 23 26 28
27 4 61 68 14 8 15 11 10 6 6 5 6 5 7 15 14 10 10 8 15 19 17 9 3 3 7 1 2 8 12 13 7 11 3 2 16 4 5 5 8 19 25 24 22
20 27 58 61 7 6 8 5 4 5 4 3 4 2 2 8 8 5 7 6 11 16 13 9 5 3 2 1 3 7 13 14 16 2 7 4 14 5 2 6 21 22 20 22 23
21 10 26 17 15 15 19 10 6 5 5 7 5 5 6 6 4 12 6 1 6 9 10 21 3 12 15 4 4 5 13 15 13 6 15 14 31 33 5 6 15 26 31 38 41
13 4 8 6 8 15 13 7 16 7 1 7 3 2 7 5 4 1 5 4 5 6 5 6 5 5 13 2 2 2 1 13 18 24 11 29 19 35 18 16 25 34 41 43 47
10 9 15 5 20 20 7 8 19 5 4 4 8 11 4 6 7 7 8 4 3 3 2 1 2 5 5 4 7 12 13 14 16 12 9 25 27 42 23 27 20 26 32 37 44
31 30 26 9 6 9 5 11 11 9 10 10 16 7 5 5 17 14 7 6 6 6 3 3 2 2 20 5 3 8 19 16 18 16 20 17 35 34 27 17 14 26 33 38 40
Wind_Direction
235 236 233 230 224 225 224 222 223 225 222 223 226 217 215 213 212 213 219 221 214 220 225 222 227 218 180 147 130 135 76 171 217 162 245 174 166 167 184 164 181 203 230 232 182
232 234 233 231 225 222 222 222 222 223 224 220 221 220 215 210 210 219 222 224 217 215 224 215 209 202 165 155 162 106 134 204 208 185 263 206 193 166 173 172 214 230 233 230 187
231 232 232 229 228 222 222 221 220 219 221 219 221 223 220 203 209 221 217 225 218 211 219 221 201 185 167 157 171 170 188 206 205 204 250 222 198 174 160 224 221 229 237 220 193
228 227 226 229 227 229 220 220 218 218 215 216 218 220 218 201 208 221 213 212 208 204 205 209 187 161 141 170 172 167 251 231 187 114 107 199 164 193 205 219 219 246 243 225 203
225 222 226 225 227 224 224 216 216 214 211 214 214 217 210 206 207 166 208 205 200 195 203 206 180 153 159 168 151 159 244 240 254 258 250 225 234 218 235 232 247 257 231 223 216
223 221 219 224 222 224 224 216 212 210 209 211 210 212 214 228 220 199 198 194 195 183 186 196 202 171 138 149 171 199 245 263 281 263 204 180 229 197 233 226 236 244 237 226 227
222 219 218 221 218 217 218 215 210 208 206 209 207 206 208 220 232 238 225 187 197 201 206 201 186 185 154 144 222 190 3 331 245 240 271 207 282 208 238 230 233 238 234 230 231
220 217 216 216 216 212 212 211 207 205 205 208 206 201 205 221 208 209 211 211 232 235 230 212 180 175 132 134 61 135 118 180 269 165 235 176 253 250 232 232 237 239 239 238 237
219 211 213 213 211 208 205 206 201 201 205 201 203 203 184 182 198 194 196 198 196 197 220 212 187 131 123 99 53 10 209 195 294 204 139 190 260 243 232 229 237 240 237 237 237
222 209 215 212 209 202 199 197 190 193 196 197 212 211 163 176 182 181 184 188 174 179 175 203 210 83 133 139 226 197 221 223 205 247 191 218 261 270 266 245 242 248 245 237 242
229 219 215 209 203 195 191 174 167 174 188 195 202 143 173 160 173 173 174 164 153 154 172 171 177 194 171 223 146 81 237 203 251 266 207 233 252 253 255 247 257 255 252 247 249
222 222 209 202 195 187 188 173 180 185 158 178 172 197 171 185 166 164 167 161 162 168 128 148 210 188 124 148 149 129 203 254 272 300 231 282 265 261 247 248 249 253 257 261 258
223 216 209 198 186 183 187 184 182 169 139 124 168 164 164 176 183 168 171 160 170 148 175 185 188 148 154 149 168 207 230 236 231 335 280 308 273 262 240 238 253 254 254 255 255
220 218 201 190 181 182 187 177 178 166 96 192 175 188 176 164 167 196 185 153 151 188 186 194 158 153 171 184 181 214 184 186 317 350 259 17 287 275 271 244 243 248 247 250 252
214 214 212 193 175 183 181 172 171 172 175 166 164 155 175 177 132 186 198 177 152 146 167 166 161 164 186 187 178 220 166 189 200 233 279 228 271 268 247 244 254 252 248 247 249
208 210 192 191 177 174 174 163 171 140 192 150 143 159 128 140 38 134 184 163 142 123 148 180 171 174 187 161 180 147 108 75 80 112 251 246 217 217 227 223 238 244 251 255 258
205 214 196 185 173 171 163 160 141 184 230 142 154 163 152 159 142 163 188 183 162 171 197 151 156 176 158 114 124 176 136 190 187 184 247 322 200 246 256 245 227 242 258 267 275
200 209 205 183 170 171 157 156 143 108 174 181 140 159 172 143 136 140 147 205 203 130 137 189 211 189 180 180 174 185 176 179 199 193 254 42 229 250 230 247 252 257 264 271 270
187 192 170 173 168 163 156 186 145 181 165 142 136 165 149 170 120 140 188 203 203 190 178 177 231 83 185 143 164 166 207 74 129 71 34 217 283 282 238 260 260 259 262 267 271
182 199 182 164 164 158 158 129 120 148 121 138 126 180 171 178 140 169 171 199 205 202 96 192 112 4 179 153 211 203 132 181 172 198 239 255 268 233 294 249 257 262 265 275 283
175 181 162 162 160 158 178 140 130 130 127 135 131 143 181 180 173 186 190 150 177 167 194 207 145 39 140 200 189 165 192 188 132 181 208 275 259 215 219 241 254 282 291 291 292
174 152 155 155 154 166 171 143 130 119 99 104 88 93 142 174 182 188 202 214 193 151 190 185 94 178 208 185 343 224 200 202 215 222 251 194 269 159 216 252 249 281 298 301 307
128 127 156 157 152 134 115 87 94 131 104 95 109 93 110 150 173 171 177 207 182 176 171 169 210 140 272 298 266 222 216 217 225 23 221 194 262 66 200 284 281 282 296 322 323
132 138 146 150 131 140 135 132 115 76 80 98 109 98 105 150 60 182 157 174 208 178 178 164 155 207 217 177 145 197 198 214 212 230 250 245 265 265 255 297 300 299 307 310 308
125 92 114 125 135 135 123 123 144 128 48 117 90 193 140 132 143 74 128 120 73 146 161 170 216 210 247 302 34 133 220 222 224 235 233 253 257 270 253 257 264 273 284 290 289
111 137 96 82 123 126 119 151 154 117 144 135 124 150 129 151 179 164 151 140 150 59 119 38 235 175 267 221 232 255 257 234 240 259 292 270 267 260 272 287 285 283 283 277 278
126 126 130 115 121 121 173 154 148 124 32 135 140 128 162 99 109 127 125 143 138 135 140 156 161 225 256 169 144 263 229 238 243 225 226 243 252 283 277 262 287 286 281 277 279